#timestamp,LO_Frequency,Hit,StdDev 
1557619215.2,286047000.6,N
1557619235.1,286046998.8,N
1557619236.0,286046998.8,N
1557619255.8,286046998.9,N
1557619275.7,286046998.6,N
1557619295.5,286046997.1,N
1557619315.3,286046997.0,N
1557619335.2,286046999.3,N
1557619355.0,286046997.7,N
1557619355.9,286046997.7,N
1557619375.8,286046997.5,N
1557619395.6,286046999.6,N
1557619415.4,286046995.0,Y
1557619435.3,286046999.2,P
1557619455.1,286046998.5,P
1557619475.8,286046998.5,P
1557619495.7,286047000.0,N
1557619515.5,286046998.1,Y
1557619535.4,286046999.8,P
1557619555.2,286047002.5,P
1557619575.0,286047001.5,N
1557619575.9,286047001.5,N
1557619595.8,286047003.7,N
1557619615.6,286047003.2,N
1557619635.4,286047002.7,N
1557619655.3,286047001.1,N
1557619675.1,286047002.3,N
1557619695.9,286047003.1,N
1557619715.7,286047003.9,N
1557619735.5,286047003.8,N
1557619755.4,286047004.6,Y
1557619775.2,286047002.4,P
1557619795.0,286047001.3,P
1557619796.0,286047001.3,N
1557619815.8,286047002.1,Y
1557619835.6,286046999.3,P
1557619855.5,286046998.8,N
1557619875.3,286046997.3,N
1557619895.1,286046999.0,N
1557619915.9,286047002.7,N
1557619935.7,286047001.1,N
1557619955.6,286047000.6,N
1557619975.4,286047000.5,N
1557619995.2,286046998.1,N
1557620015.1,286047001.2,N
1557620016.0,286047001.2,N
1557620035.8,286047000.4,N
1557620055.6,286047001.0,N
1557620075.5,286046999.8,N
1557620095.3,286047001.8,N
1557620115.2,286047000.1,N
1557620135.9,286046999.8,N
1557620155.7,286047001.8,N
1557620175.6,286047001.2,N
1557620195.4,286047002.4,N
1557620215.2,286047001.8,N
1557620235.1,286047002.2,N
1557620236.0,286047002.2,N
1557620255.8,286047001.9,N
1557620275.6,286047002.7,N
1557620295.5,286047001.0,N
1557620315.3,286047000.2,N
1557620335.2,286047001.5,N
1557620355.9,286047003.9,N
1557620375.7,286047003.1,N
1557620395.6,286047002.6,N
1557620415.4,286047000.2,N
1557620435.2,286047001.5,N
1557620455.1,286046999.8,N
1557620456.0,286046999.8,N
1557620475.8,286047000.1,N
1557620495.7,286047001.9,N
1557620515.5,286047002.7,N
1557620535.3,286047002.4,N
1557620555.2,286047002.6,N
1557620575.0,286047000.5,N
1557620575.9,286047000.5,N
1557620595.7,286046999.2,N
1557620615.6,286046997.4,N
1557620635.4,286046998.5,N
1557620655.3,286046998.1,N
1557620675.1,286047002.6,N
1557620676.0,286047002.6,N
1557620695.8,286047002.0,N
1557620715.7,286047000.3,N
1557620735.5,286046998.8,N
1557620755.3,286046999.5,N
1557620775.2,286046998.8,N
1557620795.0,286046999.4,N
1557620795.9,286046999.4,N
1557620815.8,286046999.9,N
1557620835.6,286046998.1,N
1557620855.4,286046999.3,N
1557620875.3,286046999.6,N
1557620895.3,286047000.6,N
1557620915.2,286047002.5,N
1557620935.9,286047001.0,N
1557620955.7,286046998.7,N
1557620975.6,286046996.6,N
1557620995.4,286047000.5,N
1557621015.2,286046999.9,N
1557621035.1,286047000.3,N
1557621036.0,286047000.3,N
1557621055.8,286047002.1,N
1557621075.7,286047002.8,N
1557621095.5,286047001.4,N
1557621115.3,286046999.9,N
1557621135.2,286047000.5,N
1557621155.0,286046998.3,N
1557621155.9,286046998.3,N
1557621175.7,286047002.8,N
1557621195.6,286047002.4,N
1557621215.4,286047003.8,N
1557621235.3,286047001.6,N
1557621255.1,286047000.2,N
1557621256.0,286047000.2,N
1557621275.8,286047002.7,N
1557621295.7,286047004.2,N
1557621315.5,286047003.9,N
1557621335.3,286047000.1,N
1557621355.2,286047004.1,N
1557621375.0,286047001.9,N
1557621375.9,286047001.9,N
1557621395.8,286047000.2,N
1557621415.6,286047002.6,N
1557621435.4,286047000.2,N
1557621455.3,286047001.5,N
1557621475.1,286047002.2,N
1557621495.8,286046999.7,N
1557621515.7,286047003.7,N
1557621535.5,286047001.4,N
1557621555.4,286047003.3,N
1557621575.2,286047003.6,N
1557621595.0,286047003.0,N
1557621615.7,286047003.6,N
1557621635.5,286047003.7,N
1557621655.4,286047002.7,N
1557621675.2,286047000.8,N
1557621695.0,286047000.2,N
1557621695.9,286047000.2,N
1557621715.8,286047004.4,Y
1557621735.6,286047003.5,P
1557621755.5,286047002.7,P
1557621775.3,286047000.0,N
1557621795.1,286047001.7,N
1557621815.9,286047002.3,N
1557621835.7,286047002.1,N
1557621855.5,286046999.9,N
1557621875.4,286047002.1,N
1557621925.3,286047000.2,E
1557621935.2,286047002.3,N
1557621955.0,286047002.4,P
1557621955.9,286047002.4,P
1557621975.8,286047002.8,Y
1557621995.6,286046998.6,P
1557622015.4,286046998.6,N
1557622035.3,286047001.0,N
1557622055.1,286047000.3,N
1557622075.8,286047002.7,N
1557622095.7,286046999.1,N
1557622115.5,286046999.1,N
1557622135.3,286047000.3,N
1557622155.2,286047000.6,N
1557622175.0,286047000.4,N
1557622175.9,286047000.4,N
1557622195.8,286046998.9,N
1557622215.6,286046999.2,N
1557622235.4,286046997.6,N
1557622255.3,286046997.5,N
1557622275.1,286046994.9,Y
1557622295.9,286046994.9,P
1557622315.7,286046996.8,N
1557622335.5,286046999.0,N
1557622355.4,286047001.2,N
1557622375.2,286046996.7,N
1557622395.0,286046997.9,N
1557622395.9,286046997.9,N
1557622415.8,286046998.5,N
1557622435.6,286046997.3,N
1557622455.5,286046996.7,N
1557622475.3,286047001.1,N
1557622495.1,286046999.2,N
1557622515.9,286046997.1,N
1557622535.7,286046999.6,N
1557622555.5,286046999.6,N
1557622575.4,286046997.1,N
1557622595.2,286046996.8,N
1557622615.1,286046998.5,N
1557622616.0,286046998.5,N
1557622635.8,286046999.0,N
1557622655.6,286046999.4,N
1557622675.5,286046998.4,N
1557622695.3,286046999.5,N
1557622715.2,286046997.2,N
1557622735.9,286046999.5,N
1557622755.7,286046996.7,N
1557622775.6,286046997.9,N
1557622795.4,286046996.6,N
